| time (UTC) | temp F | wind direction | speed knots | gust knots | rain 1hr in | rain 24hr in | rain mn in | humidity % | barometer mb |
| 20260506201522 | 60 | 167 | 0.0 | 1.7 | 0.00 | 0.20 | 0.18 | 95 | 856.1 |
| 20260506200519 | 61 | 237 | 1.7 | 5.2 | 0.00 | 0.20 | 0.18 | 95 | 856.1 |
| 20260506195522 | 61 | 26 | 0.9 | 1.7 | 0.00 | 0.20 | 0.18 | 95 | 856.1 |
| 20260506194523 | 61 | 5 | 1.7 | 2.6 | 0.00 | 0.20 | 0.18 | 94 | 856.1 |
| 20260506193520 | 61 | 264 | 2.6 | 5.2 | 0.01 | 0.20 | 0.18 | 96 | 856.1 |
| 20260506192523 | 60 | 30 | 0.9 | 1.7 | 0.02 | 0.20 | 0.18 | 96 | 856.1 |
| 20260506191523 | 60 | 18 | 1.7 | 2.6 | 0.02 | 0.20 | 0.18 | 96 | 856.1 |
| 20260506190523 | 60 | 38 | 1.7 | 3.5 | 0.02 | 0.20 | 0.18 | 95 | 856.1 |
| 20260506185520 | 60 | 224 | 1.7 | 4.3 | 0.03 | 0.20 | 0.18 | 95 | 856.1 |
| 20260506184523 | 60 | 180 | 1.7 | 2.6 | 0.03 | 0.20 | 0.18 | 95 | 856.1 |
| 20260506183524 | 60 | 256 | 1.7 | 3.5 | 0.04 | 0.19 | 0.17 | 95 | 856.1 |
| 20260506182524 | 60 | 149 | 0.9 | 4.3 | 0.05 | 0.19 | 0.16 | 95 | 856.1 |
| 20260506181524 | 60 | 179 | 1.7 | 3.5 | 0.07 | 0.18 | 0.16 | 96 | 856.1 |
| 20260506180524 | 60 | 214 | 1.7 | 3.5 | 0.08 | 0.18 | 0.15 | 96 | 856.1 |
| 20260506175524 | 60 | 62 | 0.9 | 0.9 | 0.09 | 0.17 | 0.15 | 98 | 856.1 |
| 20260506174528 | 60 | 88 | 0.9 | 1.7 | 0.11 | 0.17 | 0.15 | 97 | 856.0 |
| 20260506173529 | 60 | 12 | 1.7 | 1.7 | 0.10 | 0.16 | 0.13 | 97 | 856.1 |
| 20260506172529 | 60 | 220 | 0.9 | 1.7 | 0.10 | 0.14 | 0.12 | 95 | 856.1 |
| 20260506171525 | 60 | 313 | 1.7 | 2.6 | 0.07 | 0.11 | 0.09 | 94 | 856.1 |
| 20260506170525 | 60 | 217 | 0.9 | 3.5 | 0.06 | 0.10 | 0.07 | 95 | 856.1 |
| 20260506165545 | 60 | 262 | 0.9 | 1.7 | 0.05 | 0.08 | 0.06 | 96 | 856.1 |
| 20260506164525 | 60 | 21 | 0.9 | 2.6 | 0.04 | 0.06 | 0.04 | 95 | 856.1 |
| 20260506163525 | 60 | 27 | 0.0 | 0.9 | 0.03 | 0.05 | 0.03 | 95 | 856.1 |
| 20260506162526 | 61 | 2 | 0.0 | 0.9 | 0.02 | 0.04 | 0.02 | 94 | 856.1 |
| 20260506161526 | 61 | 25 | 0.0 | 0.9 | 0.02 | 0.04 | 0.02 | 92 | 856.1 |
| 20260506160526 | 61 | 307 | 0.9 | 3.5 | 0.01 | 0.03 | 0.01 | 92 | 856.2 |
| 20260506155527 | 61 | 247 | 1.7 | 3.5 | 0.01 | 0.03 | 0.01 | 91 | 856.2 |
| 20260506154526 | 61 | 193 | 0.0 | 1.7 | 0.00 | 0.03 | 0.00 | 92 | 856.2 |
| 20260506153526 | 61 | 245 | 0.9 | 1.7 | 0.00 | 0.02 | 0.00 | 92 | 856.2 |
| 20260506152531 | 61 | 102 | 0.0 | 0.9 | 0.00 | 0.02 | 0.00 | 93 | 856.2 |
| 20260506151552 | 62 | 58 | 0.0 | 0.9 | 0.00 | 0.02 | 0.00 | 93 | 856.2 |
| 20260506150532 | 62 | 236 | 0.0 | 1.7 | 0.00 | 0.02 | 0.00 | 93 | 856.2 |
| 20260506145532 | 63 | 136 | 0.0 | 0.0 | 0.00 | 0.02 | 0.00 | 88 | 856.2 |
| 20260506144532 | 64 | 230 | 0.9 | 2.6 | 0.00 | 0.02 | 0.00 | 85 | 856.3 |
| 20260506143554 | 64 | 248 | 0.9 | 3.5 | 0.00 | 0.02 | 0.00 | 82 | 856.3 |
| 20260506142528 | 64 | 245 | 0.9 | 2.6 | 0.00 | 0.02 | 0.00 | 81 | 856.4 |
| 20260506141528 | 64 | 208 | 0.9 | 1.7 | 0.00 | 0.02 | 0.00 | 80 | 856.4 |
| 20260506140519 | 65 | 225 | 1.7 | 6.1 | 0.00 | 0.02 | 0.00 | 79 | 856.4 |
| 20260506135600 | 65 | 216 | 1.7 | 6.1 | 0.00 | 0.02 | 0.00 | 80 | 856.4 |
| 20260506134520 | 65 | 223 | 2.6 | 7.0 | 0.00 | 0.02 | 0.00 | 79 | 856.4 |
| 20260506133520 | 65 | 229 | 2.6 | 4.3 | 0.00 | 0.02 | 0.00 | 79 | 856.4 |
| 20260506132529 | 64 | 215 | 1.7 | 3.5 | 0.00 | 0.02 | 0.00 | 80 | 856.4 |
| 20260506131529 | 63 | 220 | 1.7 | 4.3 | 0.00 | 0.02 | 0.00 | 81 | 856.3 |
| 20260506130517 | 63 | 207 | 2.6 | 9.6 | 0.00 | 0.02 | 0.00 | 81 | 856.3 |
| 20260506125520 | 63 | 225 | 2.6 | 7.0 | 0.00 | 0.02 | 0.00 | 82 | 856.3 |
| 20260506124529 | 62 | 234 | 1.7 | 4.3 | 0.00 | 0.02 | 0.00 | 82 | 856.2 |
| 20260506123521 | 62 | 215 | 2.6 | 6.1 | 0.00 | 0.02 | 0.00 | 82 | 856.2 |
| 20260506122610 | 62 | 220 | 1.7 | 3.5 | 0.00 | 0.02 | 0.00 | 82 | 856.2 |
| 20260506121530 | 62 | 236 | 1.7 | 3.5 | 0.00 | 0.02 | 0.00 | 82 | 856.2 |
| 20260506120521 | 62 | 240 | 1.7 | 4.3 | 0.00 | 0.02 | 0.00 | 82 | 856.2 |
| 20260506115530 | 61 | 219 | 2.6 | 4.3 | 0.00 | 0.02 | 0.00 | 82 | 856.2 |
| 20260506114530 | 61 | 235 | 0.9 | 3.5 | 0.00 | 0.02 | 0.00 | 83 | 856.1 |
| 20260506113530 | 60 | 122 | 0.9 | 2.6 | 0.00 | 0.02 | 0.00 | 83 | 856.1 |
| 20260506112550 | 59 | 78 | 0.9 | 3.5 | 0.00 | 0.02 | 0.00 | 86 | 856.0 |
| 20260506111531 | 57 | 0 | 0.9 | 3.5 | 0.00 | 0.02 | 0.00 | 89 | 855.9 |
| 20260506110550 | 56 | 276 | 1.7 | 4.3 | 0.00 | 0.02 | 0.00 | 91 | 855.8 |
| 20260506105531 | 55 | 28 | 0.9 | 1.7 | 0.00 | 0.02 | 0.00 | 95 | 855.7 |
| 20260506104531 | 54 | 97 | 1.7 | 2.6 | 0.00 | 0.03 | 0.00 | 96 | 855.7 |
| 20260506103531 | 54 | 319 | 0.9 | 1.7 | 0.00 | 0.03 | 0.00 | 98 | 855.6 |
| 20260506102531 | 53 | 68 | 0.9 | 2.6 | 0.00 | 0.03 | 0.00 | 99 | 855.6 |
| 20260506101532 | 52 | 95 | 0.9 | 1.7 | 0.00 | 0.03 | 0.00 | 100 | 855.6 |
| 20260506100557 | 52 | 284 | 0.9 | 1.7 | 0.00 | 0.03 | 0.00 | 100 | 855.5 |
| 20260506095518 | 52 | 272 | 0.9 | 1.7 | 0.00 | 0.03 | 0.00 | 100 | 855.5 |
| 20260506094533 | 52 | 263 | 1.7 | 3.5 | 0.00 | 0.03 | 0.00 | 100 | 855.5 |
| 20260506093532 | 52 | 74 | 0.9 | 0.9 | 0.00 | 0.03 | 0.00 | 100 | 855.5 |
| 20260506092553 | 52 | 116 | 0.9 | 1.7 | 0.00 | 0.03 | 0.00 | 100 | 855.5 |
| 20260506091538 | 52 | 246 | 0.9 | 1.7 | 0.00 | 0.03 | 0.00 | 100 | 855.5 |
| 20260506090517 | 52 | 232 | 0.0 | 0.9 | 0.00 | 0.03 | 0.00 | 100 | 855.5 |
| 20260506085518 | 53 | 75 | 0.9 | 0.9 | 0.00 | 0.03 | 0.00 | 100 | 855.6 |
| 20260506084519 | 52 | 270 | 0.9 | 1.7 | 0.00 | 0.03 | 0.00 | 100 | 855.5 |
| 20260506083518 | 52 | 251 | 0.9 | 1.7 | 0.00 | 0.03 | 0.00 | 100 | 855.5 |
| 20260506082517 | 53 | 252 | 0.9 | 1.7 | 0.00 | 0.03 | 0.00 | 100 | 855.6 |
| 20260506081517 | 53 | 256 | 0.9 | 1.7 | 0.00 | 0.03 | 0.00 | 100 | 855.6 |
| 20260506080519 | 54 | 262 | 1.7 | 2.6 | 0.00 | 0.03 | 0.00 | 100 | 855.6 |
| 20260506072518 | 54 | 86 | 0.9 | 2.6 | 0.00 | 0.03 | 0.00 | 99 | 855.7 |
| 20260506071518 | 55 | 240 | 0.9 | 1.7 | 0.00 | 0.03 | 0.00 | 98 | 855.7 |
| 20260506070517 | 55 | 152 | 0.0 | 0.9 | 0.00 | 0.03 | 0.00 | 97 | 855.7 |
| 20260506061518 | 57 | 169 | 0.0 | 0.9 | 0.00 | 0.03 | 0.00 | 96 | 855.8 |
| 20260506060518 | 57 | 250 | 0.9 | 1.7 | 0.00 | 0.03 | 0.00 | 95 | 855.8 |
| 20260506050520 | 57 | 254 | 1.7 | 2.6 | 0.00 | 0.03 | 0.00 | 97 | 855.9 |
| 20260506044517 | 58 | 251 | 1.7 | 2.6 | 0.00 | 0.03 | 0.00 | 96 | 855.9 |
| 20260506043517 | 58 | 260 | 1.7 | 2.6 | 0.00 | 0.03 | 0.00 | 96 | 855.9 |
| 20260506042520 | 59 | 106 | 0.9 | 1.7 | 0.00 | 0.03 | 0.00 | 94 | 855.9 |
| 20260506041520 | 59 | 252 | 0.9 | 1.7 | 0.00 | 0.03 | 0.00 | 93 | 856.0 |
| 20260506040518 | 59 | 294 | 1.7 | 2.6 | 0.00 | 0.03 | 0.00 | 93 | 856.0 |
| 20260506035517 | 59 | 260 | 0.9 | 1.7 | 0.00 | 0.03 | 0.03 | 94 | 856.0 |
| 20260506034518 | 60 | 214 | 0.0 | 1.7 | 0.00 | 0.03 | 0.03 | 93 | 856.0 |
| 20260506033521 | 60 | 285 | 0.9 | 2.6 | 0.00 | 0.03 | 0.03 | 93 | 856.0 |
| 20260506032518 | 60 | 260 | 1.7 | 1.7 | 0.00 | 0.03 | 0.03 | 94 | 856.0 |
| 20260506031518 | 60 | 255 | 0.9 | 1.7 | 0.00 | 0.03 | 0.03 | 93 | 856.0 |
| 20260506030519 | 60 | 196 | 0.0 | 0.9 | 0.00 | 0.03 | 0.03 | 92 | 856.1 |
| 20260506025539 | 60 | 304 | 0.0 | 1.7 | 0.00 | 0.03 | 0.03 | 91 | 856.1 |
| 20260506024519 | 60 | 265 | 0.9 | 2.6 | 0.00 | 0.03 | 0.03 | 91 | 856.1 |
| 20260506023519 | 60 | 259 | 1.7 | 3.5 | 0.00 | 0.03 | 0.03 | 93 | 856.0 |
| 20260506022540 | 60 | 267 | 0.0 | 0.9 | 0.00 | 0.03 | 0.03 | 94 | 856.0 |
| 20260506021540 | 60 | 252 | 0.9 | 1.7 | 0.00 | 0.03 | 0.03 | 93 | 856.1 |
| 20260506020600 | 60 | 81 | 0.0 | 1.7 | 0.00 | 0.03 | 0.03 | 92 | 856.1 |
| 20260506015540 | 60 | 296 | 0.9 | 2.6 | 0.00 | 0.03 | 0.03 | 91 | 856.1 |
| 20260506014520 | 61 | 259 | 0.9 | 1.7 | 0.00 | 0.03 | 0.03 | 92 | 856.1 |
| 20260506013540 | 62 | 184 | 0.0 | 1.7 | 0.00 | 0.03 | 0.03 | 89 | 856.1 |
| 20260506012517 | 62 | 254 | 0.0 | 1.7 | 0.00 | 0.03 | 0.03 | 85 | 856.2 |
| 20260506011518 | 62 | 259 | 3.5 | 5.2 | 0.00 | 0.03 | 0.03 | 83 | 856.2 |
| 20260506010533 | 61 | 257 | 0.9 | 1.7 | 0.00 | 0.03 | 0.03 | 87 | 856.1 |
| 20260506005018 | 62 | 255 | 0.0 | 1.7 | 0.00 | 0.03 | 0.03 | 88 | 856.1 |
| 20260506004030 | 62 | 0.0 | 0.0 | 0.00 | 0.03 | 0.03 | 86 | 856.2 | |
| 20260506003033 | 62 | 245 | 0.0 | 0.9 | 0.01 | 0.03 | 0.03 | 84 | 856.2 |
| 20260506001519 | 62 | 254 | 0.9 | 2.6 | 0.00 | 0.03 | 0.03 | 83 | 856.2 |
| 20260506000539 | 63 | 208 | 0.0 | 1.7 | 0.00 | 0.03 | 0.03 | 83 | 856.2 |
| 20260505235519 | 63 | 0.0 | 0.0 | 0.00 | 0.03 | 0.03 | 82 | 856.2 | |
| 20260505234519 | 64 | 192 | 0.0 | 1.7 | 0.00 | 0.03 | 0.03 | 81 | 856.3 |
| 20260505233520 | 64 | 222 | 0.9 | 1.7 | 0.00 | 0.03 | 0.03 | 79 | 856.3 |
| 20260505232519 | 64 | 133 | 0.0 | 1.7 | 0.01 | 0.03 | 0.03 | 79 | 856.3 |
| 20260505231520 | 64 | 260 | 0.9 | 3.5 | 0.02 | 0.03 | 0.03 | 77 | 856.3 |
| 20260505230520 | 65 | 295 | 0.9 | 2.6 | 0.02 | 0.03 | 0.03 | 79 | 856.4 |
| 20260505225540 | 65 | 126 | 0.9 | 2.6 | 0.02 | 0.03 | 0.03 | 77 | 856.4 |
| 20260505224519 | 65 | 194 | 1.7 | 3.5 | 0.02 | 0.03 | 0.03 | 80 | 856.4 |
| 20260505223520 | 67 | 197 | 0.0 | 2.6 | 0.02 | 0.03 | 0.03 | 80 | 856.4 |
| 20260505222541 | 72 | 309 | 2.6 | 9.6 | 0.01 | 0.02 | 0.02 | 69 | 856.7 |
| 20260505221558 | 77 | 320 | 2.6 | 7.8 | 0.00 | 0.01 | 0.01 | 45 | 857.1 |
| 20260505220518 | 77 | 215 | 2.6 | 6.1 | 0.00 | 0.01 | 0.01 | 38 | 857.2 |
| 20260505215538 | 77 | 222 | 1.7 | 4.3 | 0.00 | 0.01 | 0.01 | 38 | 857.2 |
| 20260505214521 | 77 | 216 | 1.7 | 6.1 | 0.00 | 0.01 | 0.01 | 38 | 857.2 |
| 20260505213518 | 78 | 227 | 2.6 | 7.0 | 0.00 | 0.01 | 0.01 | 38 | 857.2 |
| 20260505212539 | 78 | 212 | 4.3 | 11.3 | 0.00 | 0.01 | 0.01 | 39 | 857.3 |
| 20260505211519 | 78 | 189 | 4.3 | 9.6 | 0.00 | 0.01 | 0.01 | 39 | 857.3 |
| 20260505210519 | 79 | 207 | 3.5 | 7.8 | 0.00 | 0.01 | 0.01 | 39 | 857.3 |
| 20260505205519 | 79 | 204 | 4.3 | 13.9 | 0.00 | 0.01 | 0.01 | 39 | 857.4 |
| 20260505204520 | 79 | 208 | 3.5 | 12.2 | 0.00 | 0.01 | 0.01 | 40 | 857.4 |
| 20260505203519 | 79 | 207 | 4.3 | 9.6 | 0.00 | 0.01 | 0.01 | 40 | 857.4 |
| 20260505202520 | 80 | 214 | 3.5 | 7.0 | 0.00 | 0.01 | 0.01 | 40 | 857.4 |